Location: *
(58.4167°N, 22.5000°E)
Time: 14:32:35
(UTC+00:00)

CZ-4B DEB - Pass Details

Date: 22 September 2019
Orbit: 446 x 453 km, 97.4° (Epoch: 17 October)

Event Time Altitude Azimuth Distance (km) Brightness Sun altitude
Exits shadow 19:15:34 86° 31° (NNE) 466 4.3 -20.8°
Drops below altitude 10° 19:18:59 10° 345° (NNW) 1,609 7.9 -21.2°
Sets 19:21:02 0° 345° (NNW) 2,487 9.0 -21.4°
